Wind_Speed
10 10 10 10 10 11 11 10 10 10 11 11 11 10 9 9 9 9 8 8 9 9 8 8 7 7 7 7 7 6 7 6 6 6 6 6 6 5 6 6 6 6 5
9 9 9 9 10 10 10 10 10 10 10 11 11 10 9 9 9 9 10 10 9 9 8 8 8 7 7 7 7 7 7 7 7 7 7 6 6 6 6 6 6 6 6
8 9 8 8 9 9 9 10 9 9 10 10 10 10 10 10 10 10 10 10 10 10 9 9 9 8 8 8 8 8 7 8 8 8 8 7 7 7 7 6 6 6 7
9 9 8 8 9 9 9 10 10 10 10 10 10 11 11 11 11 11 11 11 10 10 9 9 9 9 9 9 9 9 9 9 9 9 8 7 7 7 7 7 7 8 8
8 9 9 8 9 10 10 10 11 10 10 10 10 11 11 11 12 11 12 12 11 11 10 10 10 10 9 9 9 9 9 9 9 8 8 7 7 7 7 7 7 8 9
9 9 9 9 10 10 11 11 11 11 10 10 11 12 12 12 13 13 13 13 13 12 12 11 10 10 10 10 10 10 11 10 10 9 9 8 8 8 8 8 8 9 10
10 9 10 10 11 11 11 11 11 12 12 12 12 13 13 13 13 14 14 13 14 14 13 11 11 11 11 11 11 11 11 11 11 11 11 10 9 9 9 9 9 10 11
10 10 10 11 12 12 11 12 12 13 13 13 14 13 13 13 14 15 15 15 14 14 14 13 13 13 13 12 12 12 12 12 12 12 12 11 11 11 11 11 11 11 11
12 11 10 11 12 12 12 13 13 13 13 14 14 14 14 15 16 16 16 16 16 15 15 15 14 14 14 14 14 14 13 13 12 12 13 13 13 13 13 13 13 13 13
12 11 11 12 13 13 14 14 14 13 14 15 15 15 15 16 16 16 17 17 17 17 16 16 16 16 16 16 16 15 15 14 14 14 14 15 15 15 15 15 14 14 15
12 12 12 13 13 13 14 14 15 15 15 16 16 16 17 17 17 17 18 18 18 17 17 17 17 16 16 16 17 17 17 16 16 16 16 16 17 17 17 17 17 16 16
14 13 13 13 14 14 14 15 15 16 17 17 17 18 19 19 19 19 19 19 19 18 18 18 18 18 18 18 19 18 18 18 18 18 18 17 17 17 17 18 18 19 19
14 14 14 15 15 15 15 16 16 17 19 19 19 19 20 20 20 20 20 20 20 19 20 20 20 20 20 20 20 20 20 20 20 20 20 20 20 19 19 20 20 19 20
15 15 16 17 17 17 17 17 18 19 19 20 19 20 20 21 20 21 21 21 20 20 21 20 20 21 21 22 22 22 22 22 22 22 22 22 22 22 22 22 21 21 21
18 18 18 18 19 19 19 19 20 20 20 21 21 22 21 21 21 22 22 22 22 22 22 22 22 21 21 22 22 22 23 23 24 24 23 24 24 23 23 23 23 23 23
20 20 20 21 22 21 21 21 21 22 22 22 22 22 23 22 22 23 23 23 23 23 24 23 22 22 23 23 23 24 24 24 24 24 24 25 25 25 25 25 25 25 25
22 22 22 23 23 23 23 23 22 22 23 23 23 23 23 24 24 24 24 24 25 25 25 25 24 24 24 24 24 24 24 25 25 25 25 26 26 26 27 27 27 27 27
24 24 24 24 24 23 22 22 23 24 24 24 24 24 25 26 26 26 26 25 26 26 26 26 26 25 25 25 25 26 26 26 26 27 27 27 27 28 28 28 28 28 28
26 26 26 25 24 23 24 25 25 25 25 26 26 27 27 28 28 27 27 27 27 27 27 27 27 27 27 27 27 28 28 28 28 29 29 29 29 29 29 29 29 29 30
26 26 26 25 25 25 26 25 25 25 26 27 27 28 28 28 28 27 28 28 28 28 28 28 28 29 29 29 29 29 30 30 30 30 31 31 30 31 31 31 31 31 31
27 27 26 25 25 26 27 26 26 26 27 28 29 29 29 29 29 29 29 29 29 29 29 29 29 30 30 31 31 30 30 31 31 31 32 32 32 32 32 32 32 32 33
28 28 28 27 27 28 28 27 27 27 28 29 30 30 30 30 30 30 29 29 29 29 29 30 30 30 30 31 31 31 32 32 32 32 33 34 34 33 32 33 33 33 33
29 29 29 29 30 30 29 29 29 29 29 30 30 31 31 31 31 31 31 31 30 30 30 30 30 30 31 31 31 32 32 33 32 32 32 32 32 31 31 32 32 33 32
29 30 30 30 30 31 31 30 30 30 30 30 31 32 32 32 32 32 32 32 32 32 31 31 31 31 31 31 32 32 32 32 31 31 30 30 30 30 30 30 30 31 31
30 30 30 30 31 31 32 31 31 31 31 31 32 32 32 32 32 32 32 32 32 32 32 31 31 32 31 31 32 32 32 31 30 29 29 28 28 28 29 29 29 30 31
30 30 31 31 31 31 32 32 32 32 32 32 31 32 32 33 32 31 31 30 31 32 32 32 32 32 32 31 31 32 32 31 30 29 28 28 28 28 29 29 29 30 31
Wind_Direction
31 29 25 26 31 32 31 31 31 31 30 28 27 26 26 26 25 23 19 16 15 14 10 2 356 352 347 346 342 338 331 325 317 317 313 300 281 267 258 250 247 250 252
24 23 19 19 24 27 23 25 25 24 25 25 24 23 19 14 11 9 9 7 3 2 3 1 357 351 343 340 338 335 333 325 316 312 310 303 292 279 269 256 249 250 246
15 11 14 14 15 18 14 13 16 15 14 15 16 14 8 5 0 358 359 357 355 352 352 350 349 348 343 338 333 329 327 324 316 311 304 299 294 281 276 273 268 261 250
0 360 360 6 5 3 1 357 359 2 3 4 6 5 3 360 357 356 354 350 347 345 342 340 339 339 338 335 330 327 325 322 320 315 308 297 292 283 275 273 268 265 260
355 356 355 354 352 350 349 347 347 349 350 351 353 354 354 353 350 349 347 346 346 342 337 333 332 333 328 329 328 328 325 323 321 316 313 306 296 287 283 272 264 263 263
349 345 344 343 341 340 342 341 340 341 340 339 341 342 342 342 341 340 338 337 336 334 331 325 325 328 329 329 325 319 317 314 312 310 308 307 305 291 285 277 271 266 264
338 334 329 331 329 332 334 332 332 333 332 333 333 332 331 332 332 332 331 328 328 328 326 323 319 318 316 317 319 317 313 312 310 307 304 302 300 293 285 282 276 271 268
330 328 323 319 321 324 327 327 326 326 326 327 328 327 327 327 327 326 326 324 323 322 319 317 314 313 311 312 313 311 311 311 308 305 301 299 297 291 288 284 281 275 270
323 326 325 320 320 322 325 326 324 324 324 323 323 324 327 329 327 325 322 322 321 318 315 313 311 310 309 308 306 305 307 306 302 297 294 294 293 289 287 287 283 277 271
316 318 322 324 323 322 321 322 320 320 321 321 321 319 322 325 326 324 322 322 320 319 313 310 310 308 306 304 303 302 302 302 298 293 290 289 289 286 281 282 282 279 274
315 316 319 321 323 325 322 321 318 315 317 318 316 315 318 320 320 319 317 316 316 314 311 308 307 306 305 303 301 300 299 297 296 295 290 287 286 285 282 281 281 279 277
313 315 319 320 320 319 319 319 315 313 313 314 313 313 314 315 316 316 315 314 312 310 309 307 305 303 301 299 299 298 297 296 293 292 290 287 285 285 283 282 282 280 279
308 313 314 315 316 315 314 314 311 310 311 313 310 312 314 312 311 311 313 314 311 310 309 305 303 302 300 298 297 295 294 293 292 290 288 287 284 283 281 281 280 280 279
307 309 309 309 310 310 310 310 310 311 311 311 308 310 311 310 309 310 311 312 310 308 307 304 303 301 299 298 296 294 292 291 291 290 287 286 284 281 280 278 277 277 276
303 306 308 307 307 307 307 306 307 309 309 308 307 307 307 307 308 308 308 309 309 308 307 303 301 300 300 299 297 295 294 292 290 289 286 284 282 281 279 278 275 275 275
300 302 304 304 304 304 302 304 304 305 305 305 307 308 308 308 307 308 307 308 308 308 306 302 301 300 299 298 296 295 294 293 292 289 286 284 282 281 280 278 276 275 275
294 296 298 299 300 300 300 299 301 303 304 305 306 306 306 306 306 306 306 305 305 306 304 302 300 300 299 297 295 295 295 293 292 290 287 284 283 281 279 278 277 276 275
293 294 294 295 296 298 298 299 301 302 302 304 305 305 304 304 305 305 304 303 303 303 303 301 300 299 298 297 296 296 295 294 292 290 288 285 283 281 280 278 276 275 275
293 293 293 293 294 296 297 299 299 300 301 302 303 302 302 302 302 302 302 302 302 302 302 301 300 300 298 298 297 296 295 293 292 290 287 285 283 282 280 279 277 275 274
290 290 291 292 294 295 297 297 296 298 299 300 300 300 300 300 300 300 300 301 301 301 302 302 301 301 299 298 298 297 295 294 292 289 287 284 283 282 281 278 276 275 274
288 288 290 293 293 293 294 295 295 297 298 298 298 299 299 299 298 297 298 299 299 300 301 302 301 300 299 299 298 297 295 295 293 290 288 285 284 283 281 279 277 276 274
286 287 288 291 292 293 294 294 294 295 297 297 297 297 298 298 297 297 297 297 298 299 299 300 300 299 298 298 297 296 295 294 293 291 289 287 285 283 281 280 278 277 276
286 287 288 289 292 293 294 294 294 295 295 295 295 295 296 296 297 298 298 298 297 297 297 298 298 298 298 298 298 297 296 295 294 292 289 288 286 284 283 281 278 277 276
287 287 288 289 290 291 291 292 293 293 293 293 294 295 295 296 296 297 297 297 297 297 297 298 298 298 298 298 298 298 298 297 295 294 291 289 287 286 284 283 281 279 277
286 287 288 288 289 290 290 291 292 292 293 296 295 294 294 296 296 297 297 296 296 297 297 299 300 300 299 299 299 300 301 298 297 296 293 291 288 286 285 284 282 281 280
285 286 288 289 290 289 289 290 291 292 293 294 295 295 294 295 295 296 297 297 298 299 298 299 302 302 302 301 301 301 301 300 298 297 294 292 289 287 287 285 283 282 279
Height
5920 5918 5917 5916 5914 5912 5910 5909 5907 5905 5904 5902 5900 5898 5897 5895 5894 5893 5891 5890 5888 5887 5885 5884 5882 5881 5879 5877 5876 5874 5873 5871 5870 5869 5868 5866 5865 5865 5864 5864 5863 5863 5863
5920 5919 5918 5916 5914 5913 5911 5909 5908 5906 5904 5902 5901 5899 5898 5896 5894 5893 5891 5889 5888 5886 5885 5883 5881 5880 5878 5876 5875 5873 5872 5870 5869 5867 5866 5865 5865 5863 5863 5862 5861 5861 5860
5920 5919 5918 5916 5915 5913 5911 5909 5908 5906 5904 5903 5901 5899 5898 5896 5894 5892 5890 5889 5887 5886 5884 5883 5881 5879 5877 5875 5874 5872 5871 5869 5867 5865 5864 5863 5862 5861 5861 5860 5859 5858 5858
5920 5918 5917 5916 5915 5913 5911 5909 5907 5906 5904 5902 5901 5899 5897 5895 5893 5891 5889 5888 5886 5884 5883 5881 5879 5878 5876 5874 5872 5871 5869 5867 5865 5863 5862 5861 5860 5859 5859 5858 5857 5857 5857
5919 5917 5916 5915 5914 5912 5910 5909 5907 5905 5903 5902 5900 5898 5896 5894 5892 5890 5888 5886 5885 5883 5881 5879 5878 5876 5874 5872 5871 5869 5867 5865 5864 5862 5860 5859 5857 5857 5857 5857 5856 5855 5855
5917 5916 5915 5914 5913 5911 5909 5908 5906 5904 5902 5901 5899 5897 5895 5893 5891 5889 5887 5884 5883 5881 5879 5877 5876 5874 5872 5870 5869 5867 5865 5863 5861 5860 5858 5857 5856 5855 5854 5854 5854 5853 5852
5916 5915 5913 5912 5911 5909 5908 5906 5905 5903 5901 5899 5897 5895 5893 5891 5889 5887 5885 5883 5881 5879 5877 5875 5873 5872 5870 5868 5866 5864 5862 5860 5859 5857 5855 5854 5853 5852 5851 5851 5850 5850 5850
5915 5913 5911 5910 5909 5907 5906 5904 5902 5901 5899 5897 5895 5893 5890 5888 5886 5884 5882 5880 5878 5876 5874 5872 5870 5869 5867 5865 5863 5861 5859 5857 5856 5854 5852 5851 5850 5849 5848 5847 5847 5846 5846
5913 5911 5910 5909 5907 5905 5904 5902 5900 5898 5896 5894 5892 5890 5888 5886 5883 5881 5879 5877 5875 5873 5870 5869 5867 5865 5863 5861 5859 5858 5856 5854 5852 5851 5849 5848 5847 5846 5844 5843 5843 5843 5842
5910 5908 5908 5906 5905 5903 5901 5899 5897 5895 5893 5891 5889 5887 5885 5883 5880 5878 5876 5873 5871 5869 5867 5865 5863 5861 5859 5858 5856 5854 5852 5850 5848 5847 5846 5844 5843 5841 5840 5839 5838 5838 5838
5907 5906 5905 5904 5902 5900 5898 5896 5894 5892 5890 5888 5886 5884 5882 5880 5877 5875 5872 5870 5867 5865 5863 5861 5859 5857 5855 5853 5851 5850 5848 5846 5844 5843 5841 5840 5838 5837 5836 5835 5834 5833 5833
5905 5904 5902 5900 5899 5897 5895 5893 5891 5889 5887 5884 5882 5880 5878 5876 5873 5870 5868 5865 5863 5861 5859 5856 5854 5852 5850 5848 5847 5845 5843 5841 5839 5838 5836 5835 5833 5832 5831 5830 5829 5828 5827
5901 5900 5899 5897 5896 5894 5892 5890 5888 5885 5883 5880 5877 5875 5873 5871 5869 5866 5863 5861 5858 5856 5854 5851 5849 5847 5845 5843 5841 5839 5837 5835 5834 5832 5831 5829 5828 5827 5826 5824 5823 5822 5822
5898 5897 5896 5894 5892 5890 5888 5886 5884 5881 5878 5876 5873 5871 5869 5866 5863 5861 5858 5856 5853 5851 5849 5846 5844 5842 5839 5837 5835 5833 5831 5829 5827 5826 5824 5823 5821 5820 5819 5818 5817 5816 5815
5894 5893 5892 5890 5888 5886 5883 5881 5879 5876 5874 5871 5869 5866 5864 5861 5858 5856 5853 5851 5848 5845 5843 5840 5838 5836 5833 5831 5829 5827 5824 5822 5821 5819 5817 5816 5814 5813 5812 5811 5810 5809 5808
5890 5888 5887 5885 5883 5881 5878 5876 5874 5871 5869 5866 5863 5861 5858 5856 5853 5851 5848 5845 5842 5840 5837 5834 5832 5829 5827 5825 5822 5820 5818 5815 5813 5811 5810 5808 5807 5806 5804 5804 5803 5802 5801
5885 5884 5882 5880 5878 5875 5873 5870 5868 5866 5863 5861 5858 5856 5853 5850 5847 5845 5842 5839 5836 5833 5831 5828 5825 5823 5820 5818 5815 5813 5810 5808 5806 5804 5802 5800 5799 5797 5796 5795 5794 5794 5792
5880 5878 5876 5874 5872 5870 5867 5864 5862 5860 5857 5855 5852 5850 5847 5844 5841 5838 5835 5832 5829 5827 5824 5821 5818 5815 5813 5810 5808 5805 5803 5800 5798 5796 5794 5792 5790 5789 5788 5786 5786 5785 5784
5874 5872 5870 5868 5866 5863 5861 5859 5856 5854 5851 5849 5846 5843 5840 5837 5834 5831 5828 5825 5822 5819 5816 5813 5811 5808 5805 5802 5799 5797 5795 5792 5790 5787 5784 5782 5781 5779 5778 5777 5776 5775 5774
5867 5865 5863 5861 5859 5857 5855 5852 5850 5847 5845 5842 5839 5836 5833 5830 5827 5823 5820 5817 5814 5811 5808 5805 5802 5799 5796 5793 5791 5788 5786 5783 5781 5778 5775 5773 5771 5769 5767 5766 5765 5764 5763
5860 5858 5856 5854 5853 5850 5848 5845 5843 5840 5838 5835 5832 5829 5825 5822 5819 5815 5812 5809 5806 5803 5800 5797 5794 5791 5788 5785 5782 5779 5776 5773 5771 5768 5766 5763 5761 5759 5757 5755 5754 5752 5752
5852 5850 5848 5847 5845 5843 5840 5838 5835 5833 5830 5827 5824 5820 5817 5814 5810 5807 5804 5800 5797 5794 5791 5788 5785 5782 5779 5776 5772 5769 5766 5763 5761 5758 5755 5752 5750 5748 5746 5744 5742 5741 5740
5844 5842 5841 5839 5837 5835 5832 5830 5827 5825 5822 5819 5816 5812 5809 5805 5802 5798 5795 5792 5789 5786 5782 5779 5776 5773 5770 5766 5763 5760 5756 5753 5750 5747 5744 5741 5739 5737 5735 5733 5731 5729 5728
5835 5833 5832 5830 5828 5826 5823 5821 5818 5815 5812 5809 5807 5803 5800 5796 5793 5790 5786 5783 5780 5777 5773 5770 5767 5763 5760 5757 5753 5750 5746 5743 5740 5737 5733 5731 5728 5726 5724 5723 5721 5719 5717
5826 5824 5823 5821 5819 5816 5814 5811 5809 5806 5803 5800 5797 5793 5790 5787 5784 5781 5777 5774 5771 5767 5764 5761 5758 5754 5751 5747 5743 5740 5737 5733 5730 5727 5724 5721 5719 5717 5715 5713 5711 5709 5708
5818 5816 5814 5812 5810 5807 5805 5802 5799 5796 5794 5791 5787 5784 5780 5777 5774 5771 5768 5764 5761 5758 5754 5751 5748 5744 5741 5737 5733 5730 5727 5723 5720 5717 5715 5712 5710 5708 5706 5703 5701 5700 5698